Wetbulb
41.07 35.95 33.47 36.76 37.76 37.42 35.86 34.36 33.36 36.35 41.13 37.78 37.73 37.12 40.03 42.51 42.27 42.42 39.50 39.03 38.94 39.50 41.54 41.88 41.70 41.43 41.54 41.24 41.89 42.73 43.50 44.86 46.85 48.91 50.12 51.02 51.44 52.43 52.69 54.81 55.43 54.87 54.50 52.63
37.28 34.09 39.81 40.99 40.88 38.53 36.16 33.92 33.64 37.24 40.27 37.53 36.55 36.67 39.91 42.42 39.34 38.73 38.41 37.77 38.13 39.04 39.53 40.30 39.88 39.56 39.57 39.50 40.10 40.84 41.51 42.72 43.87 45.61 46.42 47.79 48.57 48.57 51.31 52.17 52.65 53.60 53.03 52.08
35.04 39.21 42.86 41.63 38.80 37.46 35.91 34.36 33.79 35.08 36.47 36.93 33.89 32.10 35.81 37.47 39.11 39.59 39.04 38.85 38.74 37.91 37.57 37.63 38.08 37.89 37.83 37.60 38.06 39.42 40.15 40.83 41.28 43.09 44.84 44.87 45.35 44.65 43.95 45.85 48.33 49.65 50.58 50.70
38.40 42.12 41.17 38.12 36.92 37.51 33.00 37.97 37.03 35.88 31.41 27.23 33.31 24.38 32.88 35.76 35.33 36.54 36.47 35.30 35.65 36.40 37.47 37.68 37.07 37.07 37.10 36.73 37.68 38.18 39.03 39.47 40.39 40.40 40.26 39.76 40.37 39.94 40.99 41.87 44.01 46.39 47.42 47.32
36.81 37.16 36.00 35.48 37.34 38.69 35.69 36.97 34.91 33.73 30.01 28.17 29.29 25.37 30.61 34.95 32.83 33.94 34.54 35.39 35.74 36.26 36.51 36.28 36.25 37.03 36.94 36.64 35.95 36.24 37.09 37.88 38.51 38.56 38.18 37.91 37.39 38.18 38.73 39.86 40.00 40.50 43.10 44.70
37.14 38.81 38.63 38.59 39.47 38.41 38.17 34.39 34.08 31.32 29.42 23.32 29.42 28.86 29.54 32.11 34.17 33.74 35.06 35.46 36.02 35.80 35.70 35.77 36.51 36.60 35.01 34.62 34.40 34.76 35.01 35.26 36.42 36.99 36.80 36.16 35.49 35.76 35.83 36.19 36.65 37.69 39.08 40.61
36.22 36.54 37.83 38.93 35.16 36.44 35.22 30.22 25.16 23.42 21.68 23.15 31.39 29.33 32.61 36.98 36.06 36.03 34.24 34.03 34.44 34.68 34.19 33.96 33.61 33.60 33.82 33.05 33.00 34.01 33.19 33.23 34.38 34.83 35.08 34.87 35.15 34.88 34.74 34.81 35.14 34.94 35.77 36.52
31.77 30.29 35.25 37.05 36.49 34.61 32.62 32.39 26.01 18.02 22.04 23.80 30.29 27.04 32.80 35.10 36.32 35.99 35.39 34.63 34.59 34.00 34.30 34.10 33.86 32.91 33.49 33.34 32.59 32.05 31.83 31.64 32.93 33.42 33.58 33.92 34.06 34.29 34.43 33.59 33.76 33.95 34.39 35.07
30.68 31.15 35.55 36.42 35.90 37.21 33.74 30.89 35.65 29.20 28.50 21.38 26.81 31.15 33.50 35.24 34.16 33.98 33.16 32.71 32.12 33.50 34.66 34.99 33.24 32.30 32.01 32.49 32.31 31.66 30.98 31.09 31.77 32.83 32.51 33.04 33.07 32.94 32.29 31.47 31.97 32.13 33.16 34.82
36.67 28.30 37.46 35.97 37.13 35.94 35.91 37.72 28.67 30.12 16.72 15.97 23.52 25.46 27.23 31.65 32.24 32.95 31.26 31.36 31.55 32.57 33.16 34.16 33.52 32.51 31.72 31.51 31.44 31.66 31.95 30.16 30.32 31.09 31.63 31.82 31.36 32.15 31.31 31.08 30.92 30.32 31.22 31.66
37.88 34.17 31.56 35.63 33.38 33.30 30.71 29.98 32.20 32.11 28.71 21.89 17.16 22.97 33.69 34.37 34.09 32.18 31.49 32.23 32.61 32.74 32.63 32.39 33.01 33.14 31.46 31.07 29.92 29.46 29.60 29.63 29.45 30.08 30.45 31.38 31.31 31.40 30.46 29.05 28.91 29.04 29.67 29.94
38.39 33.85 24.42 30.82 35.54 36.02 35.27 32.92 32.41 28.21 24.32 26.14 26.35 26.54 35.58 34.91 34.12 32.95 32.99 33.07 31.68 31.34 29.13 29.21 30.00 30.89 30.44 29.25 29.14 28.87 29.46 29.59 30.10 30.76 29.69 29.49 30.20 29.74 29.50 28.32 28.06 28.44 28.58 29.28
37.72 30.26 16.74 22.03 27.62 33.84 31.58 33.72 34.37 33.38 31.02 23.49 20.24 23.12 33.44 32.61 32.96 33.55 32.52 32.31 31.15 29.72 28.53 28.36 28.17 28.15 28.21 29.11 29.29 29.59 29.52 29.65 29.09 29.36 28.86 28.61 28.45 28.39 27.23 28.22 28.00 27.99 27.84 27.86
39.33 31.91 22.99 20.06 23.11 29.10 25.66 28.28 28.45 29.46 22.75 19.95 22.75 25.17 30.13 31.68 30.11 31.63 32.27 30.55 28.95 27.59 27.51 26.90 26.49 27.18 27.93 28.47 27.99 28.06 28.21 28.21 28.89 28.49 27.38 26.06 25.74 26.75 26.69 26.97 26.81 26.36 26.53 26.43
34.22 22.58 27.44 28.40 27.38 26.20 25.37 25.81 26.72 24.00 25.40 19.79 24.00 24.07 28.09 30.10 26.01 25.39 26.58 28.44 29.14 28.46 26.94 26.54 26.24 26.40 26.73 26.95 27.04 27.75 27.94 27.88 27.19 26.25 25.56 25.34 25.66 26.14 26.41 25.91 25.43 25.89 25.73 25.40
32.50 18.92 22.95 14.53 25.35 25.55 22.82 24.73 24.42 24.36 24.42 24.08 25.08 24.78 31.66 25.89 26.58 25.73 26.76 26.64 25.66 26.05 26.58 26.67 27.29 27.35 27.19 27.59 27.32 27.64 27.17 26.85 26.04 24.12 24.92 25.91 25.66 26.20 26.39 26.31 26.31 26.16 25.31 24.45
26.61 20.60 11.56 8.72 21.70 17.24 10.45 19.19 22.76 23.70 25.49 23.75 19.66 23.95 21.41 22.42 25.64 23.96 24.32 25.37 25.78 26.59 26.57 26.44 26.43 26.80 26.36 26.20 27.02 26.10 25.46 24.95 24.81 25.07 24.86 25.07 25.27 24.45 24.74 25.09 24.69 24.26 23.75 24.35
24.15 18.70 12.50 5.99 6.30 0.43 18.82 23.46 23.31 22.46 23.74 21.19 18.21 15.20 18.48 21.85 23.09 24.05 24.74 23.69 24.98 26.18 26.39 26.45 26.14 26.08 26.22 25.67 24.74 24.76 24.63 23.88 23.74 22.08 20.63 21.65 22.48 21.31 21.99 21.47 21.13 20.82 21.22 20.96
26.95 22.88 8.13 5.62 -1.07 10.84 19.18 21.58 20.31 17.42 16.61 17.83 16.49 19.70 22.82 23.21 22.08 20.86 25.36 26.14 25.79 26.26 26.77 26.33 26.21 25.73 23.98 23.28 23.00 22.75 22.18 22.00 21.29 20.28 19.89 18.93 17.50 15.78 16.07 14.25 15.01 15.58 15.22 15.72
23.38 24.63 16.89 -4.32 2.47 -0.36 14.98 20.00 23.45 21.95 11.50 16.60 14.63 18.38 20.01 21.78 11.59 16.77 25.32 27.22 27.04 27.25 26.78 25.34 24.34 23.89 22.84 21.03 20.98 19.53 18.73 17.60 16.40 17.49 16.28 15.35 13.80 10.35 9.44 9.75 8.88 10.07 10.18 11.55
4.72 4.15 13.71 13.89 7.37 8.92 18.77 21.05 23.62 7.02 13.02 14.89 19.38 21.55 21.54 18.78 19.88 23.71 25.88 25.63 26.37 26.03 24.65 22.93 21.85 21.47 19.79 19.56 17.82 15.89 15.25 13.83 14.89 13.38 12.45 11.35 9.78 6.96 6.21 6.06 6.55 5.86 5.49 7.00
11.45 6.29 2.65 -1.62 -3.85 3.60 21.10 21.16 16.06 20.76 25.33 24.24 24.15 23.53 23.58 24.10 24.55 24.38 25.26 24.80 24.33 22.76 21.68 20.60 18.04 18.15 17.89 16.89 14.43 12.52 11.35 13.04 11.15 9.86 7.87 5.47 4.02 3.99 5.23 2.67 2.90 2.87 2.65 2.17
10.13 14.80 8.90 13.09 11.48 21.79 22.28 22.95 25.57 25.67 22.01 24.71 24.72 25.04 24.78 24.29 23.54 24.21 23.80 23.29 22.35 20.60 20.43 17.06 14.16 14.57 14.44 13.73 11.36 7.42 9.45 9.35 7.82 0.44 0.02 0.80 2.25 2.91 2.96 1.00 1.14 1.28 1.95 1.71
18.47 20.41 16.11 14.87 20.08 21.53 23.80 24.65 25.55 25.82 25.12 26.08 25.77 25.44 24.21 23.23 24.39 24.05 23.06 22.74 21.12 18.53 16.63 14.09 11.09 10.23 9.30 8.25 9.30 4.53 6.73 6.60 -4.64 -6.01 -0.36 1.92 1.76 1.23 1.51 2.80 2.67 1.37 0.99 0.85
19.63 19.44 17.07 17.88 22.55 23.26 23.82 24.84 26.05 25.82 25.77 25.45 25.27 24.85 24.38 23.46 23.14 23.66 21.25 18.24 17.69 16.65 13.81 11.51 9.50 9.04 6.58 6.79 4.20 0.17 3.17 -1.56 -2.29 -0.43 1.41 1.32 1.53 0.59 1.02 2.00 1.39 2.30 4.36 5.76
24.12 21.48 18.46 16.91 24.21 23.03 24.89 26.07 25.75 24.81 24.70 25.04 24.64 23.10 22.90 23.02 21.56 19.15 16.26 15.42 14.61 12.43 10.98 8.99 7.54 5.30 2.35 -0.43 -0.96 -2.99 -6.04 -7.38 -5.04 -1.17 0.76 0.96 1.34 1.36 1.45 0.51 0.62 7.96 10.57 12.64
MSLP
1016.97 1017.55 1017.63 1017.20 1017.31 1017.26 1017.45 1017.44 1017.25 1016.60 1015.92 1015.71 1015.38 1015.35 1014.55 1014.09 1013.77 1014.15 1015.13 1016.22 1017.29 1018.29 1018.87 1018.57 1018.34 1017.98 1017.38 1016.91 1016.34 1016.27 1015.93 1015.55 1015.16 1015.15 1015.43 1015.65 1015.76 1015.80 1015.84 1015.77 1015.89 1016.27 1016.60 1017.12
1017.50 1017.34 1016.53 1016.78 1017.00 1017.14 1017.25 1017.31 1017.10 1016.73 1015.98 1016.01 1015.76 1015.74 1014.58 1013.68 1014.91 1015.59 1016.34 1017.26 1018.10 1018.72 1019.00 1019.30 1019.10 1018.62 1018.61 1018.55 1018.00 1017.48 1017.24 1017.13 1016.81 1016.39 1016.30 1016.29 1016.34 1016.38 1016.39 1016.28 1016.23 1016.35 1016.72 1016.99
1016.97 1016.44 1016.35 1016.56 1016.72 1017.04 1017.02 1017.11 1017.00 1017.08 1016.66 1016.41 1016.45 1016.02 1015.12 1016.10 1016.18 1016.82 1017.84 1018.57 1019.12 1019.33 1019.48 1019.73 1019.85 1020.00 1019.88 1019.61 1019.37 1019.03 1018.59 1018.12 1018.02 1017.74 1017.22 1016.97 1016.90 1017.15 1017.51 1017.38 1017.17 1017.05 1016.97 1017.17
1016.78 1016.07 1016.19 1016.35 1016.54 1016.94 1017.31 1016.65 1016.92 1017.17 1017.59 1017.71 1017.34 1017.34 1016.22 1016.56 1017.22 1017.83 1018.85 1019.51 1020.00 1020.43 1020.54 1020.37 1020.58 1020.85 1020.76 1020.81 1020.41 1020.12 1019.76 1019.46 1019.18 1018.88 1018.67 1018.88 1018.93 1019.17 1019.46 1019.01 1018.56 1018.15 1017.82 1017.73
1016.31 1016.07 1016.14 1016.46 1016.35 1016.39 1016.76 1016.96 1017.46 1017.73 1018.41 1018.71 1018.25 1018.49 1016.48 1016.46 1017.75 1018.95 1019.78 1020.23 1020.91 1021.22 1021.27 1021.40 1021.66 1021.72 1021.57 1021.66 1021.39 1020.99 1020.74 1020.45 1020.31 1020.21 1020.12 1019.94 1019.98 1020.17 1019.96 1019.83 1019.80 1019.36 1018.84 1018.46
1016.24 1015.90 1016.00 1015.79 1015.76 1016.16 1016.85 1017.42 1017.85 1018.49 1019.32 1019.47 1018.38 1018.41 1016.97 1016.73 1017.09 1019.13 1020.22 1020.90 1021.46 1021.97 1021.95 1021.89 1022.17 1022.25 1022.36 1022.29 1022.36 1022.17 1021.77 1021.68 1021.47 1021.20 1021.05 1021.09 1021.18 1020.94 1020.74 1020.81 1020.90 1020.81 1020.37 1019.90
1016.25 1016.04 1015.76 1015.83 1016.30 1016.77 1017.30 1018.45 1019.11 1019.88 1020.53 1019.79 1018.98 1018.73 1017.26 1016.76 1017.23 1018.54 1020.22 1021.38 1021.84 1022.17 1022.34 1022.59 1022.74 1022.85 1022.94 1022.94 1022.87 1022.82 1022.71 1022.62 1022.56 1022.33 1022.04 1021.99 1022.11 1022.07 1022.05 1021.95 1021.92 1021.78 1021.45 1021.11
1016.82 1016.50 1016.20 1016.34 1016.51 1017.01 1017.80 1018.50 1019.73 1020.71 1021.33 1020.48 1019.60 1018.82 1017.94 1018.34 1018.47 1019.65 1020.85 1021.57 1022.11 1022.59 1022.80 1023.05 1023.21 1023.38 1023.39 1023.41 1023.39 1023.45 1023.48 1023.46 1023.25 1023.08 1022.96 1022.75 1022.58 1022.68 1022.63 1022.99 1022.93 1022.65 1022.42 1022.00
1016.73 1016.83 1016.60 1016.60 1016.73 1017.23 1018.06 1018.73 1019.40 1020.76 1021.92 1021.79 1019.90 1018.84 1019.18 1019.23 1019.64 1020.47 1021.17 1021.70 1022.22 1022.55 1022.86 1023.08 1023.20 1023.48 1023.68 1023.82 1023.95 1024.01 1023.88 1023.74 1023.59 1023.49 1023.47 1023.40 1023.52 1023.55 1023.31 1022.99 1023.00 1023.39 1023.05 1022.63
1016.88 1017.45 1017.11 1017.26 1017.29 1017.78 1018.01 1018.63 1019.75 1021.13 1022.20 1021.99 1020.18 1019.29 1018.84 1019.52 1020.06 1020.75 1021.27 1021.79 1022.27 1022.62 1023.10 1023.43 1023.65 1023.77 1024.05 1024.14 1024.30 1024.15 1024.18 1024.33 1024.17 1024.04 1023.71 1023.88 1023.93 1023.87 1023.75 1023.74 1023.74 1023.80 1023.18 1022.62
1017.44 1018.09 1018.38 1018.10 1018.16 1018.21 1018.93 1019.09 1019.78 1020.80 1021.69 1021.41 1020.85 1019.33 1018.34 1018.88 1019.81 1020.65 1021.61 1021.94 1022.23 1022.48 1022.79 1023.33 1023.80 1024.05 1024.28 1024.64 1024.70 1024.57 1024.61 1024.74 1024.65 1024.60 1024.64 1024.56 1024.03 1024.08 1024.04 1024.22 1024.19 1023.52 1022.95 1022.73
1017.81 1018.84 1019.45 1019.09 1018.49 1018.45 1018.95 1019.31 1020.03 1021.06 1021.42 1021.33 1020.72 1019.70 1018.75 1019.04 1019.73 1020.62 1021.34 1021.71 1022.14 1022.43 1022.90 1023.56 1023.99 1024.14 1024.46 1024.71 1024.70 1024.60 1024.69 1024.72 1024.84 1025.02 1024.96 1024.91 1024.66 1024.72 1024.83 1024.45 1024.06 1023.87 1023.32 1022.52
1018.46 1019.52 1020.61 1020.28 1020.01 1019.70 1019.93 1020.32 1020.81 1021.52 1021.92 1021.78 1021.88 1020.11 1019.46 1019.78 1020.35 1020.53 1021.00 1021.68 1022.23 1022.81 1023.31 1023.77 1023.95 1024.15 1024.25 1024.48 1024.44 1024.47 1024.68 1024.71 1024.56 1024.56 1024.67 1025.03 1024.65 1024.61 1024.77 1024.35 1023.98 1023.76 1023.31 1022.79
1019.20 1020.29 1021.05 1020.97 1021.16 1021.39 1021.55 1021.36 1021.60 1022.26 1022.73 1022.25 1021.17 1020.78 1019.80 1019.61 1020.58 1020.78 1021.09 1021.51 1022.42 1022.89 1023.16 1023.50 1023.77 1023.91 1024.17 1024.22 1024.25 1024.31 1024.28 1024.28 1024.43 1024.71 1024.82 1024.86 1024.82 1024.89 1024.55 1024.21 1024.00 1023.63 1023.33 1022.86
1020.56 1021.93 1022.51 1022.43 1022.51 1022.68 1022.51 1022.14 1021.96 1022.74 1022.36 1022.57 1020.78 1020.90 1020.00 1020.32 1020.46 1020.84 1021.16 1021.65 1022.24 1022.61 1022.82 1023.06 1023.48 1023.60 1023.69 1023.82 1023.78 1023.77 1023.83 1023.82 1023.91 1024.16 1024.32 1024.38 1024.35 1024.23 1024.12 1024.02 1023.88 1023.51 1023.17 1022.61
1021.18 1022.78 1023.87 1024.13 1023.78 1023.77 1023.35 1021.84 1022.28 1022.04 1022.01 1021.52 1021.22 1020.75 1020.66 1020.80 1020.90 1021.33 1021.35 1021.68 1022.09 1022.44 1022.55 1022.77 1023.04 1023.23 1023.22 1023.25 1023.25 1023.36 1023.57 1023.83 1024.06 1024.45 1024.56 1024.43 1024.33 1024.01 1023.65 1023.18 1022.77 1022.50 1022.16 1021.84
1022.66 1024.10 1026.04 1026.28 1025.58 1025.07 1024.46 1021.81 1021.35 1021.23 1020.89 1021.10 1021.46 1021.51 1021.74 1021.45 1021.39 1021.58 1021.67 1021.72 1021.98 1022.11 1022.27 1022.53 1022.69 1022.90 1023.02 1023.17 1023.36 1023.81 1024.19 1024.34 1024.51 1024.65 1024.44 1024.46 1024.35 1024.06 1023.76 1023.32 1022.86 1022.32 1021.81 1021.14
1023.40 1024.94 1026.46 1027.75 1027.90 1026.55 1022.33 1021.19 1020.81 1020.94 1021.14 1021.57 1022.17 1022.24 1022.02 1021.85 1021.81 1021.67 1021.52 1021.69 1021.90 1022.01 1022.26 1022.50 1022.64 1022.83 1023.08 1023.50 1023.94 1024.38 1024.56 1024.73 1024.83 1024.92 1025.01 1024.83 1024.65 1024.46 1024.04 1023.57 1023.01 1022.35 1021.81 1020.96
1023.61 1025.16 1027.35 1028.62 1028.32 1025.64 1022.70 1021.15 1020.86 1021.22 1021.50 1021.95 1022.28 1022.35 1022.13 1022.13 1022.02 1021.95 1021.55 1021.71 1021.76 1021.86 1022.02 1022.37 1022.63 1023.00 1023.58 1024.01 1024.42 1024.66 1024.87 1025.08 1025.18 1025.21 1025.19 1025.22 1025.27 1025.04 1024.62 1024.16 1023.56 1022.89 1022.18 1021.06
1024.36 1025.25 1026.96 1029.27 1028.23 1025.77 1022.69 1021.15 1020.77 1021.49 1021.82 1021.80 1021.92 1022.08 1022.16 1022.14 1022.54 1022.14 1021.62 1021.48 1021.43 1021.50 1021.93 1022.61 1023.14 1023.60 1024.01 1024.55 1024.80 1025.06 1025.30 1025.50 1025.58 1025.51 1025.50 1025.52 1025.48 1025.30 1024.97 1024.49 1023.83 1023.07 1022.41 1021.15
1025.73 1026.23 1026.42 1026.61 1026.73 1024.27 1022.13 1021.13 1021.08 1021.75 1021.61 1021.30 1021.77 1021.64 1021.77 1021.90 1021.55 1021.24 1021.11 1021.17 1021.13 1021.49 1022.13 1022.84 1023.42 1024.03 1024.60 1024.94 1025.24 1025.58 1025.76 1025.84 1025.84 1025.90 1025.82 1025.69 1025.57 1025.29 1024.87 1024.17 1023.62 1022.91 1022.06 1021.07
1024.39 1025.36 1025.80 1026.05 1025.44 1023.21 1020.85 1021.09 1021.00 1020.25 1020.35 1020.76 1020.99 1020.97 1021.10 1020.99 1020.83 1020.87 1020.79 1020.90 1021.25 1021.78 1022.51 1023.18 1023.86 1024.43 1024.88 1025.30 1025.77 1026.10 1026.17 1026.06 1026.15 1026.07 1025.99 1025.77 1025.38 1024.98 1024.34 1023.74 1022.94 1022.34 1021.60 1020.54
1023.03 1022.19 1022.67 1022.60 1021.40 1019.88 1019.51 1019.11 1019.08 1019.37 1019.70 1019.91 1020.07 1020.08 1020.18 1020.35 1020.35 1020.30 1020.51 1020.84 1021.33 1021.95 1022.68 1023.40 1024.02 1024.72 1025.24 1025.70 1026.04 1026.26 1026.23 1026.23 1026.22 1026.33 1026.08 1025.44 1024.86 1024.37 1023.84 1023.22 1022.35 1021.61 1020.77 1019.84
1021.13 1020.36 1020.76 1020.31 1019.52 1019.09 1018.68 1018.31 1018.33 1018.35 1018.72 1018.64 1018.85 1019.04 1019.30 1019.79 1019.74 1019.91 1020.19 1020.67 1021.36 1022.19 1023.00 1023.67 1024.32 1025.05 1025.57 1025.90 1026.22 1026.45 1026.28 1026.24 1026.28 1026.13 1025.52 1024.81 1024.29 1023.69 1023.22 1022.63 1021.85 1020.98 1019.93 1018.96
1019.32 1019.15 1018.68 1018.36 1018.26 1017.91 1017.51 1017.25 1017.17 1017.45 1017.66 1017.89 1018.06 1018.25 1018.38 1018.83 1019.17 1019.59 1020.17 1021.05 1021.78 1022.63 1023.04 1024.24 1024.85 1025.38 1025.64 1025.94 1026.31 1026.22 1026.12 1026.00 1026.05 1025.56 1024.89 1024.19 1023.65 1023.09 1022.55 1022.01 1021.14 1020.17 1019.05 1018.20
1017.45 1016.74 1017.39 1016.56 1016.33 1016.50 1016.22 1015.97 1016.18 1016.77 1017.06 1017.24 1017.61 1017.83 1018.07 1018.55 1019.09 1019.79 1020.71 1021.47 1022.24 1023.10 1023.74 1024.59 1025.21 1025.54 1025.90 1025.93 1026.07 1026.03 1025.88 1025.70 1025.69 1025.17 1024.32 1023.65 1022.93 1022.35 1021.83 1020.98 1020.00 1018.88 1017.90 1016.65
Wind_Speed
2 5 7 11 9 3 3 4 5 5 9 6 10 8 13 12 11 13 8 13 12 13 10 13 14 16 17 18 17 17 18 16 9 5 4 3 1 1 2 2 5 6 6 7
3 7 11 5 5 4 1 4 8 6 4 2 6 13 15 16 5 7 13 11 10 9 11 14 15 16 17 15 16 17 16 16 12 6 4 3 3 2 2 2 2 3 5 6
7 8 6 5 4 4 5 5 5 8 3 5 5 7 7 5 11 13 11 11 10 10 12 13 15 14 13 15 16 16 16 15 14 13 8 5 4 4 5 5 3 3 3 5
6 5 7 4 4 7 4 3 6 4 3 3 4 6 7 7 7 6 8 7 9 10 12 12 12 13 13 12 12 14 15 16 14 16 11 12 7 6 4 4 4 5 5 2
6 7 4 3 7 7 8 2 1 2 3 3 5 1 9 8 3 4 6 9 9 9 10 11 10 10 10 10 11 11 13 15 15 15 13 9 11 5 4 7 9 9 7 6
6 1 6 9 4 3 3 2 5 3 3 2 5 7 6 5 8 7 7 9 9 7 7 8 7 6 7 7 8 9 12 13 13 13 14 14 13 10 9 9 9 8 6 6
4 5 3 2 2 4 4 4 4 4 2 6 1 0 8 5 7 14 14 9 7 6 7 7 7 6 6 8 8 7 9 11 10 11 12 12 11 11 11 10 8 8 7 5
4 6 3 1 3 5 5 6 5 5 3 5 7 5 4 8 15 15 11 8 7 6 6 6 7 6 7 7 8 7 7 8 8 9 9 9 10 6 6 7 6 6 6 6
5 4 0 2 1 4 3 3 3 4 1 2 5 4 4 6 11 11 9 8 7 7 5 5 6 6 7 7 7 8 8 8 9 8 6 8 7 8 7 6 6 5 6 8
4 2 3 3 3 3 3 5 3 2 2 5 5 5 5 6 11 9 8 7 6 5 6 5 5 6 6 6 6 7 7 8 8 9 8 6 6 6 5 4 4 5 5 8
4 4 4 5 4 7 2 2 2 3 5 5 2 7 0 6 11 10 6 7 8 6 6 6 5 5 5 4 4 5 5 5 6 6 7 7 7 9 8 8 7 6 5 5
4 5 3 8 4 3 5 6 6 4 5 3 1 9 4 7 9 9 8 8 8 7 7 6 6 6 5 4 4 4 4 4 3 1 1 3 3 4 6 6 6 8 10 9
4 1 3 11 4 4 1 0 3 2 3 5 4 9 4 6 7 8 8 7 6 6 6 7 6 5 5 3 3 3 3 4 2 0 2 4 5 5 6 6 6 7 8 9
3 3 8 9 5 3 3 6 1 4 2 3 11 12 20 18 4 6 8 8 7 8 8 7 6 6 5 5 4 3 3 3 3 4 4 4 5 6 6 7 7 8 8 9
4 4 3 4 0 3 5 10 13 6 12 9 20 18 19 15 4 3 5 6 7 7 7 7 7 7 7 6 6 5 4 2 1 4 5 5 4 5 5 6 7 8 9 9
2 2 3 5 4 5 10 18 12 16 16 17 19 22 15 2 4 4 6 6 5 5 4 3 7 7 7 7 7 5 3 3 1 3 5 6 7 10 13 13 13 12 11 9
6 6 4 8 1 5 9 14 17 11 12 7 9 9 2 5 4 5 4 3 4 5 4 4 4 3 5 5 2 2 5 4 6 6 8 9 10 11 11 12 13 14 15 16
6 6 4 5 4 2 10 3 5 9 8 4 1 5 7 5 4 3 3 1 1 3 4 5 4 3 3 4 6 4 5 5 5 5 5 6 8 9 11 13 15 17 16 17
7 6 1 5 6 6 14 6 7 7 9 5 5 4 6 5 2 3 1 4 4 5 7 4 3 4 6 6 5 5 4 5 4 7 5 5 6 9 12 13 15 16 17 18
8 5 6 2 6 11 7 3 5 6 9 8 6 6 8 5 2 6 6 7 8 7 3 6 6 4 6 4 4 3 2 2 6 5 8 10 10 8 11 14 15 14 14 17
3 2 16 15 7 8 7 6 4 6 10 3 5 6 7 5 7 6 5 7 5 4 7 6 5 5 4 4 4 3 3 5 5 7 9 9 10 12 12 13 12 14 14 16
9 8 6 3 1 9 8 4 7 8 3 5 6 7 7 8 8 6 8 7 7 8 5 5 5 4 4 4 3 2 4 5 7 7 9 10 11 9 10 13 13 13 13 14
1 9 8 12 10 6 7 8 9 6 6 6 7 9 10 10 7 8 7 7 7 7 5 4 5 4 3 2 2 2 5 6 7 4 8 9 10 10 11 12 13 12 12 11
5 3 5 1 6 10 9 9 9 8 9 10 9 11 8 10 9 9 7 7 7 5 4 3 4 2 3 2 1 4 6 6 4 6 8 9 10 10 10 9 10 11 11 11
9 5 8 9 14 12 12 11 13 10 9 9 8 9 10 9 9 9 6 4 4 4 4 3 1 2 2 2 2 4 5 4 6 8 9 9 8 9 11 11 11 11 13 14
13 18 12 15 16 10 11 9 7 8 9 10 9 6 5 6 6 5 5 4 4 3 2 1 1 2 4 3 4 4 5 3 6 9 8 8 9 9 10 10 11 22 26 29
Wind_Direction
228 103 205 219 205 222 274 238 256 262 276 306 280 302 289 254 262 295 35 101 82 65 49 42 33 26 25 26 30 25 22 17 25 26 48 52 97 63 68 162 160 165 169 165
75 222 225 233 245 236 306 314 283 286 269 345 295 297 276 300 33 64 96 88 85 81 56 42 33 32 29 25 25 29 29 27 22 16 7 32 39 21 16 11 80 151 174 177
166 217 165 182 257 304 262 223 246 237 320 299 314 293 285 42 81 79 72 87 77 77 70 52 41 35 32 29 26 28 27 30 28 20 23 14 24 23 14 360 360 14 157 182
235 246 231 257 253 161 267 259 239 262 60 225 67 284 295 129 100 88 86 76 78 67 62 61 52 43 39 32 33 34 34 33 29 26 34 41 48 34 351 348 352 357 20 75
245 171 160 164 220 161 222 59 294 221 198 350 280 125 260 129 139 103 87 78 65 64 69 65 54 48 38 33 32 34 36 35 32 36 36 39 36 18 6 15 11 1 351 5
235 232 161 203 220 184 114 30 299 73 119 303 238 178 281 182 182 136 105 89 83 67 68 75 71 56 47 33 38 32 40 36 28 33 33 34 33 28 29 18 14 0 352 355
281 202 206 158 102 29 78 69 323 2 16 226 300 183 247 333 111 137 122 105 96 92 74 68 62 54 54 45 40 49 44 43 29 33 40 36 32 31 28 20 14 6 0 353
210 319 148 169 159 186 183 166 162 234 224 267 328 257 301 73 89 99 101 112 104 88 86 80 69 57 51 43 44 47 47 46 37 37 33 34 38 35 38 21 10 8 359 344
166 240 206 66 116 134 200 183 173 101 346 47 235 271 83 100 101 110 121 123 126 120 118 111 86 65 59 54 45 42 31 30 32 37 33 35 27 23 24 25 21 355 347 345
200 312 220 178 134 33 148 171 67 19 209 241 276 262 219 184 150 149 152 140 133 118 92 78 80 81 64 68 54 51 42 31 17 13 22 24 24 21 19 13 0 343 338 353
135 119 259 124 175 184 63 219 137 144 177 199 240 262 120 123 164 163 155 162 169 159 144 129 110 102 105 97 99 91 88 68 39 20 6 359 5 3 2 356 343 344 330 328
197 154 226 235 240 174 185 226 185 209 242 253 238 259 134 131 140 146 185 189 183 166 149 142 128 126 128 140 131 132 137 110 113 78 38 341 333 339 330 323 329 333 332 335
169 182 24 331 20 29 77 174 126 119 98 214 219 260 172 118 160 202 187 188 168 159 159 155 151 153 141 151 128 137 171 187 192 54 325 304 318 311 294 299 296 303 308 314
80 162 168 207 170 116 286 291 272 125 180 229 244 282 285 294 220 254 227 176 171 168 166 171 170 173 185 186 186 207 216 171 183 195 212 245 261 262 269 277 280 281 279 282
132 199 216 257 2 125 206 256 273 213 241 221 267 267 269 292 313 179 152 158 175 191 196 198 199 203 209 206 211 223 240 236 279 331 332 310 284 269 273 263 261 259 253 258
138 227 95 301 208 247 261 260 261 255 259 253 254 264 277 206 224 190 181 176 149 143 151 155 216 230 233 230 230 240 271 305 34 313 290 298 309 315 317 314 313 306 298 285
152 135 87 264 197 57 309 248 243 233 231 238 245 254 215 267 227 151 164 190 221 224 221 222 251 247 247 246 233 27 38 20 358 334 327 319 314 308 304 303 304 304 306 306
151 126 125 226 46 242 244 246 204 213 242 210 177 231 213 199 163 197 241 227 232 212 234 254 244 277 53 73 61 44 18 2 344 322 304 300 306 314 320 315 310 308 305 300
189 158 187 174 197 303 299 243 183 164 267 194 206 228 195 166 110 304 169 189 209 225 229 215 121 102 95 74 52 40 17 341 329 313 310 339 335 318 313 307 305 304 303 298
193 201 163 71 189 211 239 161 140 111 273 226 182 224 177 138 125 246 238 245 252 238 179 129 119 105 92 68 58 41 345 342 307 323 325 321 316 312 306 302 299 297 295 292
105 72 210 222 228 274 237 181 135 104 262 224 193 199 182 182 198 222 261 262 243 189 148 121 106 112 105 80 58 9 326 295 321 323 312 312 312 304 297 294 295 295 293 291
161 165 202 87 174 271 194 95 164 211 180 188 202 209 207 226 246 239 256 250 188 169 146 120 118 114 87 79 85 320 290 321 316 316 310 302 296 292 295 293 294 291 289 287
272 199 182 186 204 215 194 184 222 170 183 206 199 222 217 234 249 241 231 194 178 177 156 126 114 130 145 136 136 282 312 316 317 290 286 287 291 292 291 295 295 295 289 287
267 168 213 50 213 236 238 230 226 208 218 234 226 231 218 227 234 236 208 190 174 164 144 103 91 150 209 191 334 261 304 316 290 274 288 294 295 295 293 294 291 290 289 290
219 150 226 255 257 259 265 250 252 240 230 241 241 219 227 218 235 223 204 148 148 142 105 70 77 286 272 304 284 268 298 289 301 300 300 299 291 299 299 288 288 284 283 283
230 235 238 248 247 224 244 244 222 216 233 235 239 241 231 206 201 149 145 136 128 118 66 350 285 274 269 268 279 276 275 273 289 301 304 301 303 306 298 294 291 291 296 298